Massena, NY

5:53 PM EDT on July 20, 2017 (GMT -0400)
Massena International-Richards

Weather History for KMSS - January, 2013

Change the Weather History Date:

Friday, January 11, 2013

  Actual Average Record
Temperature  
Mean Temperature 24 °F 14 °F  
Max Temperature 34 °F 24 °F 58 °F (1975)
Min Temperature 14 °F 5 °F -33 °F (1968)
Degree Days  
Heating Degree Days 41 51  
Month to date heating degree days 518 548  
Since 1 July heating degree days 3304 3647  
Cooling Degree Days 0 0  
Month to date cooling degree days 0  
Year to date cooling degree days 0  
Moisture  
Dew Point 26 °F    
Average Humidity 82    
Maximum Humidity 92    
Minimum Humidity 72    
Precipitation  
Precipitation 0.04 in 0.07 in 0.74 in (1983)
Month to date precipitation 0.24 0.83  
Year to date precipitation 0.24 0.83  
Sea Level Pressure  
Sea Level Pressure 30.18 in    
Wind  
Wind Speed 5 mph (ENE)    
Max Wind Speed 14 mph    
Max Gust Speed 16 mph    
Visibility 8 miles    
Events Rain    
T = Trace of Precipitation, MM = Missing Value Source: NWS Daily Summary

Daily Weather History Graph

Daily Weather History Graph

Search for Another Location

Airport or City:

Trip Planner

Search our weather history database for the weather conditions in past years. The results will help you decide how hot, cold, wet, or windy it might be!

Date:

Astronomy

Jan. 11, 2013 Rise Set
Actual Time 7:35 AM EST 4:39 PM EST
Civil Twilight 7:02 AM EST 5:12 PM EST
Nautical Twilight 6:26 AM EST 5:49 PM EST
Astronomical Twilight 5:50 AM EST 6:24 PM EST
Moon 7:04 AM EST (1/11) 4:57 PM EST (1/11)
Length of Visible Light 10h 09m
Length of Day
9h 04m
Waning Crescent, 0% of the Moon is Illuminated
Jan 11
Waning Crescent
Jan 11
New
Jan 18
First Quarter
Jan 26
Full
Feb 3
Last Quarter

Hourly Weather History & Observations

Time (EST) Temp. Windchill Dew Point Humidity Pressure Visibility Wind Dir Wind Speed Gust Speed Precip Events Conditions
12:53 AM 16.0 °F - 12.9 °F 88% 30.53 in 10.0 mi Calm Calm - N/A   Clear
1:53 AM 15.1 °F - 12.9 °F 91% 30.52 in 10.0 mi Calm Calm - N/A   Clear
2:53 AM 15.1 °F - 12.0 °F 88% 30.50 in 10.0 mi Calm Calm - N/A   Clear
3:53 AM 17.1 °F 10.0 °F 12.9 °F 84% 30.46 in 10.0 mi NE 4.6 mph - N/A   Clear
4:53 AM 18.0 °F - 15.1 °F 88% 30.45 in 10.0 mi Calm Calm - N/A   Clear
5:53 AM 18.0 °F 12.7 °F 16.0 °F 92% 30.42 in 10.0 mi NE 3.5 mph - N/A   Clear
6:53 AM 23.0 °F 18.4 °F 19.9 °F 88% 30.40 in 10.0 mi East 3.5 mph - N/A   Clear
7:53 AM 24.1 °F 18.2 °F 19.9 °F 84% 30.36 in 10.0 mi ENE 4.6 mph - N/A   Clear
8:53 AM 26.1 °F 19.4 °F 21.9 °F 84% 30.33 in 10.0 mi East 5.8 mph - N/A   Clear
9:53 AM 28.0 °F 20.8 °F 24.1 °F 85% 30.28 in 10.0 mi East 6.9 mph - N/A   Scattered Clouds
10:53 AM 30.0 °F 21.7 °F 23.0 °F 75% 30.25 in 10.0 mi East 9.2 mph - N/A   Overcast
11:53 AM 30.9 °F 23.5 °F 26.1 °F 82% 30.21 in 9.0 mi NE 8.1 mph - 0.01 in   Overcast
12:53 PM 32.0 °F 23.0 °F 27.0 °F 82% 30.17 in 10.0 mi ENE 11.5 mph - 0.00 in   Overcast
1:53 PM 32.0 °F 23.6 °F 28.0 °F 85% 30.12 in 10.0 mi ENE 10.4 mph - 0.00 in   Mostly Cloudy
2:53 PM 33.1 °F 24.4 °F 28.0 °F 82% 30.11 in 10.0 mi ENE 11.5 mph - 0.00 in   Overcast
3:53 PM 33.1 °F 26.9 °F 28.9 °F 85% 30.08 in 10.0 mi East 6.9 mph - 0.00 in   Overcast
4:53 PM 33.1 °F 30.0 °F 28.9 °F 85% 30.06 in 10.0 mi ENE 3.5 mph - N/A   Overcast
5:53 PM 34.0 °F 31.0 °F 30.0 °F 85% 30.06 in 10.0 mi NE 3.5 mph - N/A   Overcast
6:53 PM 34.0 °F 31.0 °F 30.0 °F 85% 30.04 in 10.0 mi NNE 3.5 mph - 0.00 in   Overcast
7:25 PM 33.8 °F - 30.2 °F 87% 30.03 in 10.0 mi Calm Calm - N/A   Overcast
7:53 PM 33.1 °F - 30.9 °F 92% 30.04 in 9.0 mi Calm Calm - N/A   Overcast
8:53 PM 33.1 °F 30.0 °F 30.9 °F 92% 30.03 in 10.0 mi NNE 3.5 mph - N/A   Overcast
9:40 PM 33.8 °F 30.8 °F 30.2 °F 87% 30.01 in 2.5 mi ENE 3.5 mph - 0.00 in Rain Light Rain
9:53 PM 33.1 °F 30.0 °F 30.9 °F 92% 30.02 in 2.5 mi ENE 3.5 mph - 0.00 in   Overcast
10:18 PM 33.8 °F 30.8 °F 30.2 °F 87% 30.01 in 3.0 mi NE 3.5 mph - 0.01 in   Overcast
10:30 PM 33.8 °F - 30.2 °F 87% 30.01 in 2.5 mi Calm Calm - 0.01 in   Overcast
10:51 PM 33.8 °F 30.8 °F 32.0 °F 93% 30.01 in 1.5 mi NNE 3.5 mph - 0.01 in Rain Light Rain
10:53 PM 33.1 °F 30.0 °F 32.0 °F 96% 30.03 in 1.5 mi NNE 3.5 mph - 0.01 in Rain Light Rain
11:13 PM 33.8 °F - 32.0 °F 93% 30.01 in 1.5 mi Calm Calm - 0.01 in Rain Light Rain
11:46 PM 33.8 °F - 32.0 °F 93% 30.00 in 1.5 mi Calm Calm - 0.02 in Rain Light Rain
11:53 PM 34.0 °F 31.0 °F 32.0 °F 92% 30.01 in 1.8 mi ENE 3.5 mph - 0.02 in Rain Light Rain